Dewpoint
5 6 1 -6 -3 -0 -5 -10 -10 -11 -12 -10 -10 -11 -10 -7 -3 -2 -4 -8 -10 -9 -9 -9 -9 -9 -10 -10 -10 -10 -10 -10 -10 -10 -10 -10 -10 -11 -12 -12 -12 -12
3 2 -3 -6 0 1 -6 -12 -10 -10 -11 -10 -10 -10 -10 -8 -6 -7 -9 -9 -9 -9 -9 -9 -9 -10 -10 -11 -12 -12 -12 -12 -12 -12 -12 -12 -13 -13 -14 -14 -15 -15
2 0 -3 -2 -1 -4 -9 -11 -11 -12 -11 -10 -10 -10 -10 -10 -9 -9 -9 -9 -9 -9 -8 -9 -9 -10 -11 -12 -13 -12 -13 -14 -14 -14 -14 -14 -14 -14 -14 -15 -14 -14
1 -0 -1 -2 -3 -5 -7 -8 -10 -11 -12 -11 -10 -9 -10 -10 -10 -9 -9 -9 -9 -9 -9 -9 -9 -10 -10 -11 -12 -12 -12 -11 -10 -11 -10 -10 -10 -10 -10 -10 -10 -10
1 -1 -1 -2 -2 -1 -2 -8 -10 -9 -11 -10 -10 -10 -9 -9 -9 -10 -10 -9 -9 -9 -8 -8 -8 -9 -9 -10 -10 -10 -10 -9 -8 -8 -7 -7 -7 -7 -7 -7 -7 -7
3 -1 -1 -1 -0 2 -1 -9 -10 -7 -9 -9 -10 -10 -9 -10 -9 -9 -9 -9 -9 -9 -8 -8 -8 -8 -9 -8 -9 -9 -9 -9 -8 -8 -8 -7 -7 -7 -6 -6 -6 -6
4 -0 -1 -0 2 3 -1 -9 -9 -8 -9 -9 -9 -10 -9 -9 -9 -8 -9 -8 -9 -9 -8 -9 -8 -8 -8 -8 -8 -8 -8 -8 -8 -8 -8 -8 -8 -8 -7 -7 -7 -6
4 1 1 2 3 3 -1 -7 -8 -9 -10 -8 -9 -10 -9 -9 -8 -8 -8 -8 -8 -8 -8 -8 -8 -7 -7 -7 -7 -7 -7 -7 -7 -7 -7 -7 -7 -7 -7 -7 -7 -6
5 3 4 3 3 5 2 -3 -6 -8 -9 -8 -8 -7 -7 -8 -7 -7 -7 -7 -7 -6 -6 -6 -5 -6 -5 -5 -5 -5 -6 -6 -6 -7 -7 -6 -6 -6 -6 -6 -6 -5
7 6 4 2 3 5 4 -1 -4 -6 -8 -7 -5 -4 -3 -3 -1 -1 -1 -1 -2 -1 -0 -0 -0 -0 -0 -0 -1 -1 -1 -2 -3 -3 -3 -4 -4 -5 -5 -5 -4 -4
8 6 4 3 4 6 4 2 -1 -4 -7 -5 -2 0 1 2 3 4 4 3 3 3 4 4 4 4 4 3 3 2 2 2 2 2 2 2 1 0 -1 -2 -2 -3
8 6 4 4 5 5 5 4 3 -1 -5 -5 -1 2 3 4 4 5 5 5 5 5 5 5 5 5 5 5 5 5 4 4 4 4 4 5 5 5 4 3 2 -0
8 7 6 4 4 5 5 5 4 2 -1 -4 -2 1 2 3 4 4 5 5 5 5 5 5 6 6 5 5 5 4 4 5 6 5 5 6 5 5 5 6 5 4
8 7 5 4 3 4 4 5 5 3 0 -2 -2 -1 1 2 3 4 5 5 5 6 6 5 6 6 6 5 5 4 4 6 6 6 6 6 6 5 5 6 6 5
8 7 6 6 5 5 5 5 4 4 2 2 1 -0 0 2 4 4 4 5 6 6 6 6 6 6 6 6 5 5 6 6 7 6 6 7 6 6 6 6 6 6
8 7 8 7 7 6 6 6 5 5 5 4 4 4 3 3 4 5 5 5 6 6 6 6 6 5 5 4 5 6 7 7 7 7 7 7 7 7 7 6 5 6
7 7 7 7 7 7 7 7 6 6 6 6 6 6 5 5 4 5 5 4 5 6 6 5 4 4 4 5 6 7 7 7 7 7 7 7 7 7 7 6 6 6
8 8 8 7 8 8 7 7 7 6 6 6 6 6 6 5 5 4 4 3 4 5 5 4 5 6 7 7 7 7 7 7 7 7 7 7 7 7 7 6 6 6
8 8 8 7 8 8 7 7 7 6 6 6 7 7 6 4 4 4 4 4 5 5 5 5 6 6 6 6 5 4 4 4 4 5 6 7 7 8 7 7 7 7
4 5 6 6 7 7 7 7 6 7 7 6 6 6 5 5 5 6 6 6 6 6 6 6 6 5 4 4 3 1 -0 -1 -2 -1 0 2 3 4 5 6 6 7
1 2 3 5 6 7 6 6 6 6 6 5 5 6 6 6 6 6 6 6 6 5 5 5 4 3 3 3 2 1 0 -1 -2 -3 -3 -3 -3 -3 -2 0 3 5
-1 0 2 3 4 4 5 5 5 5 5 5 6 6 5 5 4 4 4 5 4 4 4 3 3 2 2 2 2 2 1 1 0 -0 -0 -1 -2 -2 -2 -0 3 5
-4 -3 -0 1 1 2 3 4 4 4 4 4 4 4 3 2 2 2 3 3 3 3 2 2 1 0 -0 -1 -1 -0 1 1 1 1 1 1 0 -1 -1 -0 2 4
-5 -5 -3 -2 -2 -2 0 2 1 1 1 1 1 -0 -0 -0 -0 0 0 0 0 -0 -1 -2 -2 -3 -3 -3 -3 -2 -1 -1 -1 -0 1 1 0 -0 -1 -1 -0 2
-4 -4 -4 -4 -4 -4 -3 -1 -1 -2 -3 -3 -4 -4 -4 -5 -6 -7 -7 -7 -7 -7 -8 -8 -8 -8 -7 -7 -6 -4 -3 -3 -3 -2 -1 -1 -0 -1 -1 -1 0 2
-3 -3 -4 -4 -4 -3 -3 -3 -3 -5 -6 -8 -8 -9 -9 -9 -10 -11 -11 -11 -12 -12 -13 -14 -14 -14 -14 -14 -12 -9 -6 -4 -3 -1 -0 0 1 1 0 1 2 4
Wind_Speed
9 9 8 6 4 3 3 5 6 4 3 2 1 1 1 3 5 5 4 5 6 7 8 8 8 8 8 9 10 10 10 10 9 10 9 9 9 8 8 9 9 9
15 14 11 9 7 7 5 5 4 3 2 1 0 0 2 5 6 7 7 7 6 5 6 6 6 7 8 9 10 10 10 10 10 11 10 10 10 10 10 10 10 11
21 19 16 13 11 9 8 6 5 4 3 2 1 1 2 4 6 7 7 7 6 5 4 5 6 8 8 10 11 12 12 12 12 13 13 12 12 12 11 11 11 11
26 23 18 17 15 11 9 8 7 5 4 3 2 2 2 2 4 5 6 7 6 5 4 5 6 8 9 10 11 12 13 13 13 14 13 13 13 12 12 11 11 10
26 24 20 18 16 11 10 12 11 9 7 5 4 3 2 2 2 3 4 5 5 5 4 4 4 6 7 8 9 9 10 11 12 12 11 11 12 11 10 10 9 9
24 26 23 19 17 13 13 16 16 13 11 8 6 5 4 3 3 2 2 3 4 4 3 3 2 3 4 5 6 6 6 7 7 8 8 7 8 8 8 7 6 6
24 27 25 21 18 15 14 16 17 16 14 11 9 7 6 5 4 3 3 3 3 4 4 4 3 2 2 2 3 3 3 3 3 3 4 3 3 3 3 4 4 4
24 28 27 24 21 18 16 17 18 17 16 14 12 10 9 7 6 5 5 4 3 3 3 3 3 2 2 1 0 0 0 0 1 1 1 1 1 2 2 1 1 0
25 27 27 25 24 21 19 18 19 18 17 16 15 12 10 9 7 6 6 5 5 4 3 2 2 2 2 2 2 3 3 3 3 3 4 4 4 5 5 4 4 3
23 24 24 24 24 22 21 20 19 19 18 18 17 14 12 11 9 8 8 8 7 6 5 4 4 4 3 3 3 4 5 5 5 5 5 5 6 6 6 6 6 5
20 21 21 22 22 22 22 21 20 18 19 19 17 15 14 14 13 12 11 11 10 9 8 7 7 6 6 6 6 6 6 7 6 6 6 5 5 6 7 7 8 8
18 21 21 21 21 21 21 21 20 19 20 21 18 16 16 16 15 14 13 13 13 12 12 11 10 9 9 10 9 8 9 9 8 8 7 6 6 6 7 8 9 9
18 21 23 22 21 21 21 21 20 20 22 23 20 18 18 18 17 16 15 15 15 15 15 14 13 12 12 13 12 11 11 11 11 11 11 9 8 8 10 10 11 11
16 19 22 23 22 21 21 22 22 22 22 23 23 22 21 21 20 18 17 18 18 17 17 17 17 16 16 16 15 13 13 14 15 15 15 14 12 11 12 13 14 15
17 18 19 21 21 21 22 24 24 22 22 23 24 24 25 25 23 22 20 21 22 21 20 20 19 19 19 17 16 15 16 17 18 18 19 17 15 15 15 15 16 18
16 18 19 18 18 20 23 25 24 22 22 24 24 25 27 28 27 27 24 23 24 23 22 21 20 20 19 17 17 17 18 18 19 19 20 20 18 18 18 18 17 18
12 16 19 19 17 19 22 24 23 22 23 25 25 25 27 28 28 28 27 28 26 22 22 22 19 17 18 17 17 17 17 17 18 18 20 20 20 20 20 18 17 17
11 13 16 18 19 20 22 24 24 24 24 23 23 24 25 25 25 24 24 27 27 22 21 20 16 13 14 14 14 13 13 13 14 15 16 17 17 18 18 17 16 16
12 14 15 17 18 20 21 21 21 21 20 19 20 21 18 14 15 16 15 17 20 19 17 15 12 10 9 9 9 9 10 11 12 13 14 14 15 15 16 16 16 17
12 14 16 16 17 17 17 16 15 15 15 15 16 14 8 6 9 10 9 10 12 13 11 10 9 8 7 6 7 8 9 10 11 11 12 12 13 14 15 16 17 17
10 11 12 14 15 15 15 14 14 13 11 10 10 7 6 7 7 7 8 8 9 8 8 7 7 7 6 6 7 8 9 9 9 9 10 10 10 11 12 13 14 15
8 9 9 10 12 12 12 12 11 11 9 8 8 8 8 8 7 7 8 8 8 8 8 8 8 8 8 8 8 8 8 8 8 8 9 9 9 9 9 10 11 12
8 9 9 9 10 10 10 10 9 9 9 9 9 9 9 9 9 9 9 9 9 9 9 9 9 9 9 9 8 8 7 7 7 8 8 8 9 9 8 9 9 10
6 7 9 9 10 9 10 10 10 10 10 10 10 10 9 10 10 9 9 9 10 9 10 10 10 9 9 9 9 8 8 8 8 8 9 9 9 9 9 8 8 8
8 9 10 9 8 8 10 12 11 11 11 11 11 11 11 11 10 9 8 7 7 8 9 9 10 10 10 10 10 11 10 10 9 9 9 9 10 10 10 9 8 7
12 14 15 12 9 9 11 13 12 11 11 11 10 10 10 10 8 7 7 6 6 6 7 9 10 11 12 12 13 13 13 12 11 10 10 10 10 10 10 9 8 7
Wind_Direction
236 247 236 200 212 275 270 271 285 302 312 327 30 3 145 146 144 139 126 116 116 114 109 105 98 91 91 94 96 98 100 102 104 103 102 102 102 99 98 99 99 99
230 234 218 205 251 265 227 229 255 268 286 289 263 146 155 153 147 142 137 130 128 124 115 106 99 96 95 96 97 97 96 98 99 100 100 100 100 99 97 95 95 95
231 230 220 224 243 228 208 222 234 236 251 260 263 229 172 165 158 155 150 145 145 143 131 116 108 104 100 98 97 96 96 95 94 95 95 95 94 92 92 91 91 93
235 231 221 224 228 215 217 227 219 227 243 251 258 247 216 190 178 175 166 160 161 159 148 131 121 114 109 106 103 101 101 100 98 96 95 96 95 94 94 93 94 97
239 233 222 219 220 214 219 214 202 205 217 234 248 238 230 220 203 200 184 176 173 169 161 144 131 124 119 116 113 110 110 110 109 106 103 101 101 101 100 100 102 106
240 232 224 222 220 212 212 206 196 194 201 218 234 229 226 219 210 212 196 181 175 175 177 167 151 139 129 120 116 113 113 115 114 114 113 110 107 109 111 113 116 119
237 224 222 229 224 210 208 205 198 199 204 210 217 221 222 217 218 226 221 198 175 172 178 180 182 173 157 139 122 116 111 108 101 100 107 108 105 108 117 128 134 137
232 221 224 233 223 207 207 206 202 206 210 209 211 217 219 218 223 229 231 232 214 193 185 186 199 210 208 211 207 244 263 282 329 332 339 344 339 328 326 312 286 287
229 226 229 228 215 208 211 209 206 211 214 211 212 218 217 213 216 220 223 229 228 224 220 213 228 249 265 288 300 299 293 290 286 289 296 303 307 307 309 309 307 311
228 230 228 217 209 211 214 214 213 215 214 211 215 221 218 212 215 220 223 227 228 228 229 232 238 245 256 270 281 288 291 289 284 280 283 289 297 300 300 300 300 298
225 227 220 211 210 214 215 217 218 217 215 214 219 223 220 220 222 224 230 233 233 234 234 239 244 246 248 250 253 262 269 275 276 272 273 277 283 289 290 290 288 287
221 225 222 216 216 218 217 217 218 217 213 214 221 225 226 229 229 229 233 233 235 237 238 241 248 254 257 254 253 254 257 261 265 267 268 267 271 279 282 283 283 281
220 226 227 224 224 224 223 221 222 223 218 217 222 230 234 236 233 229 229 232 237 239 239 243 249 253 256 256 258 261 262 260 259 262 264 263 267 275 277 278 279 277
226 229 229 229 229 229 227 225 227 230 228 226 228 234 240 240 235 230 232 239 244 245 247 251 253 254 256 259 263 267 269 268 265 265 265 262 265 274 275 276 274 271
231 235 233 231 230 230 228 228 231 235 239 239 237 237 241 241 238 239 242 244 245 249 256 259 260 262 261 261 264 267 268 270 269 270 272 268 267 270 274 277 276 273
231 233 232 229 228 231 231 231 235 240 245 247 244 242 243 242 242 245 247 248 248 252 260 265 266 266 262 260 265 268 266 266 267 270 273 270 266 265 269 271 270 270
234 231 228 228 229 232 234 236 242 247 250 250 250 249 249 249 249 251 254 255 253 255 264 271 273 267 260 258 259 260 260 260 262 264 265 265 265 265 267 265 259 260
236 234 234 234 235 235 238 243 248 250 250 251 253 253 253 253 252 255 258 256 253 255 264 271 272 262 252 248 247 251 258 262 266 267 267 268 268 268 267 263 256 257
235 236 237 238 237 237 240 244 245 246 249 253 258 262 263 254 240 240 247 247 245 250 256 256 250 240 233 234 243 255 265 270 273 275 275 275 273 271 269 267 264 263
239 239 240 240 239 237 238 238 238 242 247 253 259 264 262 225 204 208 216 224 230 234 236 230 222 221 229 245 261 268 272 276 278 280 281 280 277 274 271 268 267 264
252 250 247 242 237 234 234 234 235 238 239 238 237 225 198 190 191 191 198 208 213 213 214 216 220 231 246 259 269 276 280 282 285 288 292 293 291 287 281 274 269 266
259 260 256 243 231 228 228 225 224 225 222 213 207 199 192 193 197 203 207 208 212 218 229 238 242 248 252 255 261 269 277 284 290 296 301 306 308 304 299 289 279 272
253 258 255 245 234 229 227 223 219 215 211 207 202 198 194 194 201 212 217 221 229 240 248 253 256 257 257 258 260 264 274 285 291 296 303 312 316 313 307 298 286 277
245 259 257 251 248 245 237 230 221 209 203 205 208 207 203 203 209 214 219 227 237 245 253 256 257 259 259 261 264 269 278 285 289 294 299 305 310 311 309 305 298 291
262 272 264 255 254 251 238 228 219 215 217 219 223 224 220 215 213 209 209 217 227 239 252 257 260 262 264 266 269 272 277 280 283 289 294 298 302 304 305 307 309 310
263 266 258 249 244 235 227 226 225 224 223 220 219 218 215 209 204 200 200 205 218 235 249 256 258 261 262 263 266 269 271 273 278 285 291 293 295 298 301 305 308 309
Height
1532 1534 1536 1536 1536 1538 1539 1540 1541 1541 1540 1540 1539 1540 1540 1540 1541 1542 1543 1543 1544 1545 1545 1545 1544 1544 1544 1544 1545 1546 1546 1546 1546 1547 1547 1548 1549 1549 1550 1550 1551 1551
1529 1532 1535 1536 1536 1538 1539 1540 1541 1541 1541 1540 1540 1540 1541 1541 1541 1542 1543 1544 1545 1546 1546 1546 1546 1545 1545 1545 1546 1546 1547 1547 1547 1548 1548 1549 1550 1550 1551 1552 1552 1552
1528 1529 1533 1535 1537 1538 1538 1539 1540 1541 1540 1540 1540 1541 1541 1542 1542 1543 1543 1544 1545 1546 1547 1547 1547 1547 1547 1547 1547 1548 1548 1548 1549 1549 1549 1550 1551 1551 1552 1552 1553 1553
1526 1528 1531 1534 1536 1537 1538 1539 1539 1540 1540 1541 1541 1541 1542 1543 1544 1544 1544 1545 1546 1547 1547 1547 1547 1547 1548 1548 1549 1549 1549 1550 1550 1551 1551 1551 1552 1553 1553 1554 1554 1554
1526 1528 1530 1533 1534 1535 1537 1537 1538 1539 1540 1541 1541 1542 1542 1543 1544 1545 1545 1546 1547 1547 1548 1548 1548 1549 1549 1550 1550 1551 1551 1551 1552 1552 1553 1553 1553 1554 1554 1555 1555 1556
1524 1527 1529 1531 1533 1534 1535 1536 1537 1538 1539 1540 1541 1542 1543 1543 1544 1545 1546 1547 1547 1548 1548 1549 1550 1550 1551 1551 1551 1552 1552 1553 1553 1553 1554 1554 1555 1555 1555 1556 1556 1556
1522 1525 1527 1529 1531 1532 1534 1535 1536 1537 1539 1540 1541 1542 1542 1543 1544 1545 1546 1547 1547 1548 1549 1549 1550 1551 1551 1552 1552 1553 1553 1554 1554 1555 1555 1556 1556 1556 1557 1557 1557 1557
1521 1523 1525 1527 1529 1531 1533 1534 1534 1536 1538 1539 1540 1541 1542 1543 1544 1545 1545 1546 1547 1548 1549 1549 1550 1551 1552 1552 1553 1553 1554 1554 1555 1555 1555 1556 1556 1557 1557 1558 1558 1558
1520 1522 1524 1525 1527 1529 1531 1532 1533 1535 1536 1538 1539 1541 1542 1543 1544 1545 1545 1546 1547 1547 1548 1549 1550 1551 1551 1552 1553 1554 1554 1555 1555 1555 1555 1556 1556 1556 1557 1558 1558 1558
1519 1521 1522 1523 1525 1527 1529 1531 1532 1534 1536 1537 1539 1540 1542 1543 1544 1544 1545 1546 1547 1547 1548 1549 1549 1550 1551 1552 1553 1553 1554 1555 1555 1555 1555 1555 1556 1556 1556 1557 1557 1558
1517 1520 1521 1522 1524 1526 1528 1530 1532 1533 1535 1537 1538 1540 1541 1542 1542 1543 1544 1545 1546 1547 1548 1548 1548 1549 1550 1550 1551 1552 1553 1554 1554 1555 1555 1555 1555 1555 1556 1556 1557 1557
1516 1518 1520 1522 1524 1526 1528 1530 1532 1533 1534 1536 1537 1538 1539 1540 1541 1542 1543 1544 1545 1546 1547 1547 1548 1548 1549 1550 1550 1550 1551 1552 1553 1554 1554 1554 1554 1554 1554 1555 1555 1556
1516 1517 1519 1521 1523 1526 1528 1530 1531 1532 1532 1533 1535 1536 1537 1538 1539 1540 1541 1542 1544 1545 1545 1546 1546 1547 1548 1548 1549 1549 1549 1549 1550 1552 1553 1553 1553 1553 1553 1553 1554 1554
1515 1517 1518 1520 1522 1525 1527 1528 1529 1530 1530 1531 1532 1534 1535 1536 1537 1538 1539 1540 1541 1543 1544 1544 1544 1545 1546 1547 1547 1547 1547 1548 1549 1550 1551 1551 1551 1551 1551 1551 1552 1552
1515 1516 1517 1519 1521 1523 1525 1526 1527 1528 1529 1530 1531 1532 1532 1533 1535 1535 1536 1537 1538 1540 1541 1541 1542 1543 1544 1545 1546 1546 1546 1546 1547 1548 1548 1548 1548 1549 1549 1549 1549 1549
1514 1515 1516 1518 1519 1521 1523 1523 1525 1527 1528 1528 1529 1530 1530 1531 1532 1532 1533 1534 1536 1537 1538 1538 1540 1542 1543 1544 1544 1544 1544 1544 1544 1544 1545 1545 1546 1546 1546 1547 1547 1547
1513 1514 1515 1517 1518 1519 1520 1522 1523 1525 1526 1526 1527 1528 1528 1528 1528 1529 1531 1532 1533 1535 1536 1537 1538 1540 1540 1541 1541 1541 1542 1542 1542 1542 1542 1542 1542 1543 1543 1544 1544 1544
1512 1513 1514 1515 1517 1518 1519 1520 1521 1522 1523 1524 1525 1524 1525 1526 1526 1527 1529 1529 1530 1533 1535 1535 1536 1536 1537 1538 1538 1539 1539 1539 1539 1539 1539 1539 1540 1540 1540 1541 1541 1542
1511 1512 1513 1514 1515 1516 1517 1517 1518 1519 1520 1521 1521 1521 1522 1524 1525 1526 1527 1527 1529 1531 1532 1533 1534 1534 1535 1535 1536 1537 1537 1537 1537 1537 1537 1537 1537 1537 1538 1538 1539 1539
1510 1511 1511 1513 1514 1514 1515 1515 1516 1517 1518 1518 1519 1519 1521 1523 1523 1525 1526 1527 1528 1530 1530 1531 1532 1532 1533 1533 1534 1534 1534 1534 1535 1535 1535 1535 1535 1535 1536 1536 1536 1536
1509 1510 1510 1511 1512 1513 1513 1514 1514 1515 1516 1516 1518 1519 1520 1522 1523 1524 1526 1527 1528 1528 1529 1530 1530 1530 1531 1531 1531 1532 1532 1533 1533 1533 1533 1533 1533 1533 1533 1533 1534 1534
1508 1509 1509 1510 1511 1512 1512 1513 1513 1514 1514 1516 1517 1518 1520 1521 1522 1524 1525 1526 1527 1527 1528 1528 1529 1529 1529 1529 1530 1530 1531 1531 1531 1531 1531 1531 1531 1531 1531 1531 1531 1531
1509 1509 1509 1510 1511 1511 1512 1513 1513 1514 1514 1515 1516 1518 1519 1520 1521 1522 1523 1524 1525 1526 1526 1527 1527 1527 1528 1528 1528 1529 1529 1529 1530 1530 1530 1530 1530 1530 1529 1529 1529 1529
1509 1509 1509 1510 1511 1511 1512 1513 1513 1514 1515 1515 1516 1517 1518 1519 1520 1521 1522 1522 1523 1524 1525 1525 1525 1526 1526 1526 1527 1527 1527 1528 1528 1528 1528 1528 1528 1528 1528 1528 1528 1528
1509 1509 1509 1510 1511 1511 1512 1513 1513 1514 1515 1515 1516 1516 1517 1518 1518 1519 1520 1521 1521 1522 1523 1523 1524 1524 1524 1525 1525 1525 1526 1526 1526 1527 1527 1527 1527 1527 1527 1527 1527 1527
1509 1509 1509 1510 1510 1511 1512 1512 1513 1513 1514 1514 1515 1515 1516 1516 1517 1517 1518 1518 1519 1520 1521 1521 1522 1523 1523 1523 1524 1524 1524 1524 1525 1525 1525 1526 1526 1526 1526 1526 1526 1526